| time (UTC) | temp F | wind direction | speed MPH | gust MPH | rain 1hr in | rain 24hr in | rain mn in | humidity % | barometer mb |
| 20260831113511 | 69 | 149 | 0.0 | 4.0 | 0.00 | 1.09 | 0.12 | 81 | 1016.8 |
| 20260831113011 | 69 | 146 | 0.0 | 1.0 | 0.00 | 1.09 | 0.12 | 81 | 1017.0 |
| 20260831112512 | 69 | 156 | 0.0 | 1.0 | 0.00 | 1.09 | 0.12 | 81 | 1017.1 |
| 20260831112012 | 69 | 0 | 0.0 | 0.0 | 0.00 | 1.09 | 0.12 | 81 | 1017.2 |
| 20260831111512 | 69 | 0 | 0.0 | 0.0 | 0.00 | 1.09 | 0.12 | 81 | 1017.2 |
| 20260831111012 | 69 | 145 | 0.0 | 1.0 | 0.00 | 1.09 | 0.12 | 81 | 1017.2 |
| 20260831110511 | 69 | 154 | 0.0 | 1.0 | 0.00 | 1.09 | 0.12 | 81 | 1017.0 |
| 20260831110012 | 69 | 156 | 0.0 | 3.0 | 0.00 | 1.09 | 0.12 | 81 | 1017.0 |
| 20260831105512 | 69 | 156 | 0.0 | 1.0 | 0.00 | 1.09 | 0.12 | 81 | 1017.0 |
| 20260831105011 | 69 | 156 | 0.0 | 3.0 | 0.00 | 1.09 | 0.12 | 81 | 1016.9 |
| 20260831104533 | 69 | 156 | 0.0 | 3.0 | 0.00 | 1.09 | 0.12 | 81 | 1017.0 |
| 20260831104011 | 69 | 157 | 0.0 | 3.0 | 0.00 | 1.09 | 0.12 | 81 | 1017.0 |
| 20260831103533 | 69 | 157 | 0.0 | 4.0 | 0.00 | 1.09 | 0.12 | 81 | 1016.9 |
| 20260831103012 | 69 | 157 | 0.0 | 3.0 | 0.00 | 1.09 | 0.12 | 81 | 1016.9 |
| 20260831102533 | 69 | 157 | 1.0 | 4.0 | 0.00 | 1.09 | 0.12 | 81 | 1016.9 |
| 20260831102011 | 69 | 157 | 1.0 | 3.0 | 0.00 | 1.09 | 0.12 | 81 | 1016.8 |
| 20260831101511 | 68 | 157 | 0.0 | 3.0 | 0.00 | 1.09 | 0.12 | 81 | 1016.7 |
| 20260831101033 | 68 | 156 | 0.0 | 0.0 | 0.00 | 1.09 | 0.12 | 81 | 1016.8 |
| 20260831100511 | 68 | 156 | 0.0 | 3.0 | 0.00 | 1.09 | 0.12 | 81 | 1016.8 |
| 20260831100012 | 68 | 156 | 0.0 | 4.0 | 0.00 | 1.09 | 0.12 | 81 | 1016.7 |
| 20260831095511 | 68 | 156 | 0.0 | 3.0 | 0.00 | 1.09 | 0.12 | 81 | 1016.6 |
| 20260831095032 | 68 | 157 | 0.0 | 3.0 | 0.00 | 1.09 | 0.12 | 81 | 1016.6 |
| 20260831094511 | 68 | 156 | 1.0 | 3.0 | 0.00 | 1.09 | 0.12 | 81 | 1016.7 |
| 20260831094032 | 68 | 156 | 1.0 | 4.0 | 0.00 | 1.09 | 0.12 | 81 | 1016.6 |
| 20260831093512 | 68 | 156 | 0.0 | 3.0 | 0.00 | 1.09 | 0.12 | 81 | 1016.6 |
| 20260831093032 | 68 | 157 | 0.0 | 0.0 | 0.00 | 1.09 | 0.12 | 81 | 1016.7 |
| 20260831092511 | 68 | 157 | 0.0 | 3.0 | 0.00 | 1.09 | 0.12 | 81 | 1016.7 |
| 20260831092011 | 68 | 157 | 1.0 | 1.0 | 0.00 | 1.09 | 0.12 | 81 | 1016.6 |
| 20260831091532 | 68 | 157 | 1.0 | 4.0 | 0.00 | 1.09 | 0.12 | 81 | 1016.6 |
| 20260831091012 | 68 | 156 | 0.0 | 3.0 | 0.00 | 1.09 | 0.12 | 81 | 1016.6 |
| 20260831090511 | 68 | 157 | 1.0 | 0.0 | 0.00 | 1.09 | 0.12 | 80 | 1016.7 |
| 20260831090012 | 68 | 157 | 1.0 | 4.0 | 0.00 | 1.09 | 0.12 | 81 | 1016.8 |
| 20260831085512 | 68 | 155 | 0.0 | 1.0 | 0.00 | 1.09 | 0.12 | 80 | 1016.7 |
| 20260831085012 | 68 | 156 | 0.0 | 1.0 | 0.00 | 1.09 | 0.12 | 80 | 1016.7 |
| 20260831084511 | 68 | 157 | 1.0 | 1.0 | 0.00 | 1.09 | 0.12 | 80 | 1016.6 |
| 20260831084011 | 68 | 156 | 1.0 | 3.0 | 0.00 | 1.09 | 0.12 | 80 | 1016.6 |
| 20260831083511 | 68 | 156 | 2.0 | 5.0 | 0.00 | 1.09 | 0.12 | 80 | 1016.6 |
| 20260831083011 | 68 | 156 | 2.0 | 7.0 | 0.00 | 1.09 | 0.12 | 80 | 1016.6 |
| 20260831082511 | 68 | 157 | 1.0 | 4.0 | 0.00 | 1.09 | 0.12 | 80 | 1016.6 |
| 20260831082011 | 68 | 152 | 0.0 | 3.0 | 0.00 | 1.09 | 0.12 | 80 | 1016.7 |
| 20260831081511 | 68 | 153 | 1.0 | 1.0 | 0.00 | 1.09 | 0.12 | 80 | 1016.7 |
| 20260831081011 | 68 | 154 | 0.0 | 3.0 | 0.00 | 1.09 | 0.12 | 80 | 1016.7 |
| 20260831080532 | 68 | 0 | 0.0 | 0.0 | 0.00 | 1.09 | 0.12 | 80 | 1016.7 |
| 20260831080011 | 68 | 0 | 0.0 | 0.0 | 0.00 | 1.09 | 0.12 | 80 | 1016.7 |
| 20260831075511 | 68 | 0 | 0.0 | 0.0 | 0.00 | 1.09 | 0.12 | 80 | 1016.7 |
| 20260831075011 | 68 | 0 | 0.0 | 0.0 | 0.00 | 1.09 | 0.12 | 80 | 1016.8 |
| 20260831074511 | 68 | 156 | 0.0 | 0.0 | 0.01 | 1.09 | 0.12 | 80 | 1016.7 |
| 20260831074011 | 68 | 157 | 0.0 | 1.0 | 0.01 | 1.09 | 0.12 | 80 | 1016.7 |
| 20260831073511 | 68 | 156 | 0.0 | 1.0 | 0.01 | 1.09 | 0.12 | 80 | 1016.8 |
| 20260831073011 | 68 | 152 | 1.0 | 3.0 | 0.02 | 1.09 | 0.12 | 80 | 1017.0 |
| 20260831072511 | 68 | 152 | 1.0 | 3.0 | 0.02 | 1.09 | 0.12 | 80 | 1016.9 |
| 20260831072011 | 68 | 156 | 1.0 | 3.0 | 0.09 | 1.09 | 0.12 | 80 | 1016.9 |
| 20260831071511 | 68 | 156 | 0.0 | 4.0 | 0.12 | 1.09 | 0.12 | 80 | 1017.1 |
| 20260831071011 | 67 | 155 | 1.0 | 3.0 | 0.12 | 1.09 | 0.12 | 80 | 1017.1 |
| 20260831070511 | 67 | 155 | 1.0 | 4.0 | 0.12 | 1.09 | 0.12 | 80 | 1017.2 |
| 20260831070012 | 67 | 156 | 1.0 | 3.0 | 0.12 | 1.09 | 0.12 | 80 | 1017.2 |
| 20260831065511 | 67 | 156 | 2.0 | 7.0 | 0.12 | 1.09 | 0.12 | 80 | 1017.0 |
| 20260831065011 | 67 | 155 | 2.0 | 7.0 | 0.12 | 1.09 | 0.12 | 80 | 1017.0 |
| 20260831064511 | 67 | 155 | 2.0 | 4.0 | 0.11 | 1.09 | 0.11 | 80 | 1017.0 |
| 20260831064011 | 67 | 154 | 1.0 | 7.0 | 0.11 | 1.09 | 0.11 | 80 | 1017.1 |
| 20260831063511 | 67 | 154 | 1.0 | 3.0 | 0.11 | 1.09 | 0.11 | 80 | 1017.1 |
| 20260831063011 | 66 | 154 | 1.0 | 4.0 | 0.10 | 1.08 | 0.10 | 80 | 1017.1 |
| 20260831062512 | 66 | 152 | 0.0 | 4.0 | 0.09 | 1.07 | 0.09 | 80 | 1017.2 |
| 20260831062011 | 66 | 0 | 0.0 | 0.0 | 0.02 | 1.00 | 0.02 | 80 | 1017.5 |
| 20260831061532 | 66 | 0 | 0.0 | 0.0 | 0.00 | 0.98 | 0.00 | 80 | 1017.4 |
| 20260831061011 | 66 | 0 | 0.0 | 0.0 | 0.00 | 0.98 | 0.00 | 80 | 1017.4 |
| 20260831060511 | 66 | 0 | 0.0 | 0.0 | 0.00 | 0.98 | 0.00 | 80 | 1017.4 |
| 20260831060011 | 66 | 0 | 0.0 | 0.0 | 0.00 | 0.98 | 0.00 | 80 | 1017.4 |
| 20260831055511 | 66 | 0 | 0.0 | 0.0 | 0.00 | 0.98 | 0.00 | 80 | 1017.4 |
| 20260831055011 | 66 | 0 | 0.0 | 0.0 | 0.00 | 0.98 | 0.00 | 80 | 1017.5 |
| 20260831054532 | 66 | 0 | 0.0 | 0.0 | 0.00 | 0.98 | 0.00 | 80 | 1017.6 |
| 20260831054011 | 66 | 155 | 0.0 | 3.0 | 0.00 | 0.98 | 0.00 | 80 | 1017.6 |
| 20260831053532 | 66 | 155 | 0.0 | 3.0 | 0.00 | 0.98 | 0.00 | 80 | 1017.5 |
| 20260831053011 | 66 | 155 | 0.0 | 0.0 | 0.00 | 0.98 | 0.00 | 80 | 1017.7 |
| 20260831052532 | 66 | 155 | 0.0 | 1.0 | 0.00 | 0.98 | 0.00 | 80 | 1017.6 |
| 20260831052011 | 65 | 155 | 0.0 | 4.0 | 0.00 | 0.98 | 0.00 | 80 | 1017.6 |
| 20260831051533 | 65 | 155 | 0.0 | 0.0 | 0.00 | 0.98 | 0.00 | 80 | 1017.6 |
| 20260831051032 | 65 | 155 | 0.0 | 4.0 | 0.00 | 0.98 | 0.00 | 80 | 1017.6 |
| 20260831050511 | 65 | 0 | 0.0 | 0.0 | 0.00 | 0.98 | 0.00 | 80 | 1017.7 |
| 20260831050032 | 65 | 155 | 1.0 | 0.0 | 0.00 | 0.98 | 0.00 | 80 | 1017.7 |
| 20260831045511 | 65 | 155 | 1.0 | 4.0 | 0.00 | 0.98 | 0.00 | 80 | 1017.8 |
| 20260831045011 | 65 | 155 | 0.0 | 0.0 | 0.00 | 0.98 | 0.00 | 80 | 1017.8 |
| 20260831044533 | 65 | 155 | 1.0 | 3.0 | 0.00 | 0.98 | 0.00 | 80 | 1017.8 |
| 20260831044011 | 65 | 155 | 1.0 | 3.0 | 0.00 | 0.98 | 0.00 | 80 | 1017.8 |
| 20260831043511 | 65 | 155 | 1.0 | 7.0 | 0.00 | 0.98 | 0.00 | 80 | 1017.7 |
| 20260831043011 | 64 | 154 | 1.0 | 3.0 | 0.00 | 0.98 | 0.00 | 80 | 1017.7 |
| 20260831042511 | 64 | 152 | 1.0 | 3.0 | 0.00 | 0.98 | 0.00 | 80 | 1017.6 |
| 20260831042032 | 64 | 153 | 1.0 | 7.0 | 0.00 | 0.98 | 0.00 | 80 | 1017.6 |
| 20260831041512 | 64 | 155 | 1.0 | 4.0 | 0.00 | 0.98 | 0.00 | 80 | 1017.5 |
| 20260831040511 | 64 | 155 | 1.0 | 8.0 | 0.00 | 0.98 | 0.00 | 80 | 1017.6 |
| 20260831040011 | 64 | 155 | 0.0 | 4.0 | 0.00 | 0.98 | 0.00 | 80 | 1017.6 |
| 20260831035511 | 64 | 153 | 0.0 | 4.0 | 0.00 | 0.98 | 0.98 | 80 | 1017.5 |
| 20260831035011 | 64 | 152 | 0.0 | 1.0 | 0.00 | 0.98 | 0.98 | 80 | 1017.6 |
| 20260831034512 | 64 | 154 | 0.0 | 1.0 | 0.00 | 0.98 | 0.98 | 80 | 1017.5 |
| 20260831034011 | 64 | 155 | 0.0 | 4.0 | 0.00 | 0.98 | 0.98 | 80 | 1017.4 |
| 20260831033532 | 64 | 152 | 0.0 | 0.0 | 0.01 | 0.98 | 0.98 | 80 | 1017.4 |
| 20260831033012 | 64 | 152 | 1.0 | 7.0 | 0.01 | 0.98 | 0.98 | 80 | 1017.5 |
| 20260831032532 | 64 | 152 | 1.0 | 4.0 | 0.01 | 0.98 | 0.98 | 80 | 1017.4 |
| 20260831032011 | 64 | 153 | 1.0 | 4.0 | 0.01 | 0.98 | 0.98 | 80 | 1017.3 |
| 20260831031511 | 64 | 152 | 1.0 | 7.0 | 0.01 | 0.98 | 0.98 | 80 | 1017.3 |
| 20260831031032 | 64 | 152 | 1.0 | 4.0 | 0.01 | 0.98 | 0.98 | 80 | 1017.4 |
| 20260831030512 | 64 | 153 | 2.0 | 4.0 | 0.02 | 0.98 | 0.98 | 80 | 1017.4 |
| 20260831030011 | 64 | 152 | 2.0 | 8.0 | 0.02 | 0.98 | 0.98 | 80 | 1017.5 |
| 20260831025511 | 64 | 150 | 1.0 | 7.0 | 0.02 | 0.98 | 0.98 | 80 | 1017.5 |
| 20260831025011 | 64 | 157 | 2.0 | 9.0 | 0.02 | 0.98 | 0.98 | 80 | 1017.5 |
| 20260831024511 | 64 | 158 | 3.0 | 9.0 | 0.02 | 0.98 | 0.98 | 80 | 1017.4 |
| 20260831024011 | 64 | 156 | 3.0 | 8.0 | 0.02 | 0.98 | 0.98 | 80 | 1017.4 |
| 20260831023511 | 64 | 157 | 3.0 | 8.0 | 0.01 | 0.97 | 0.97 | 80 | 1017.5 |
| 20260831023032 | 64 | 156 | 3.0 | 8.0 | 0.01 | 0.97 | 0.97 | 80 | 1017.5 |
| 20260831022511 | 64 | 43 | 4.0 | 8.0 | 0.01 | 0.97 | 0.97 | 80 | 1017.5 |
| 20260831022012 | 64 | 2 | 4.0 | 11.0 | 0.02 | 0.97 | 0.97 | 80 | 1017.6 |
| 20260831021532 | 64 | 360 | 3.0 | 7.0 | 0.02 | 0.97 | 0.97 | 80 | 1017.6 |
| 20260831021032 | 64 | 360 | 3.0 | 11.0 | 0.02 | 0.97 | 0.97 | 80 | 1017.6 |
| 20260831020511 | 64 | 148 | 3.0 | 8.0 | 0.03 | 0.96 | 0.96 | 80 | 1017.8 |
| 20260831020011 | 64 | 157 | 2.0 | 9.0 | 0.06 | 0.96 | 0.96 | 80 | 1017.8 |
| 20260831015512 | 64 | 145 | 2.0 | 5.0 | 0.07 | 0.96 | 0.96 | 80 | 1017.9 |
| 20260831015011 | 64 | 124 | 3.0 | 7.0 | 0.08 | 0.96 | 0.96 | 80 | 1018.1 |
| 20260831014511 | 64 | 108 | 3.0 | 8.0 | 0.13 | 0.96 | 0.96 | 79 | 1018.0 |
| 20260831014011 | 65 | 95 | 3.0 | 8.0 | 0.17 | 0.96 | 0.96 | 79 | 1018.2 |
| 20260831013511 | 65 | 98 | 3.0 | 8.0 | 0.19 | 0.96 | 0.96 | 79 | 1018.2 |
| 20260831013032 | 65 | 116 | 4.0 | 8.0 | 0.20 | 0.96 | 0.96 | 79 | 1018.2 |
| 20260831012512 | 65 | 141 | 4.0 | 11.0 | 0.20 | 0.96 | 0.96 | 79 | 1018.3 |
| 20260831012011 | 65 | 155 | 4.0 | 11.0 | 0.21 | 0.95 | 0.95 | 80 | 1018.2 |
| 20260831011511 | 66 | 157 | 3.0 | 7.0 | 0.20 | 0.94 | 0.94 | 80 | 1018.5 |
| 20260831011011 | 66 | 155 | 3.0 | 8.0 | 0.20 | 0.94 | 0.94 | 80 | 1018.5 |
| 20260831010511 | 66 | 153 | 2.0 | 7.0 | 0.19 | 0.93 | 0.93 | 80 | 1018.6 |
| 20260831010011 | 66 | 152 | 2.0 | 4.0 | 0.16 | 0.90 | 0.90 | 79 | 1018.7 |
| 20260831005532 | 66 | 154 | 2.0 | 5.0 | 0.15 | 0.89 | 0.89 | 79 | 1018.5 |
| 20260831005011 | 66 | 158 | 2.0 | 7.0 | 0.14 | 0.88 | 0.88 | 79 | 1018.4 |
| 20260831004511 | 66 | 159 | 1.0 | 7.0 | 0.09 | 0.83 | 0.83 | 79 | 1018.6 |
| 20260831004011 | 66 | 159 | 1.0 | 5.0 | 0.06 | 0.79 | 0.79 | 79 | 1018.6 |
| 20260831003511 | 66 | 159 | 1.0 | 5.0 | 0.05 | 0.77 | 0.77 | 79 | 1018.6 |
| 20260831003011 | 66 | 159 | 1.0 | 5.0 | 0.04 | 0.76 | 0.76 | 79 | 1018.6 |
| 20260831002511 | 66 | 158 | 2.0 | 8.0 | 0.03 | 0.76 | 0.76 | 79 | 1018.7 |
| 20260831002032 | 66 | 156 | 1.0 | 4.0 | 0.02 | 0.74 | 0.74 | 79 | 1018.5 |
| 20260831001512 | 66 | 152 | 1.0 | 3.0 | 0.02 | 0.74 | 0.74 | 79 | 1018.7 |
| 20260831001011 | 66 | 147 | 1.0 | 4.0 | 0.02 | 0.74 | 0.74 | 79 | 1018.8 |
| 20260831000532 | 66 | 154 | 2.0 | 4.0 | 0.02 | 0.74 | 0.74 | 79 | 1018.8 |
| 20260831000032 | 66 | 152 | 1.0 | 7.0 | 0.02 | 0.74 | 0.74 | 79 | 1018.7 |
| 20260830235511 | 67 | 42 | 1.0 | 3.0 | 0.03 | 0.74 | 0.74 | 79 | 1018.9 |
| 20260830235011 | 67 | 140 | 0.0 | 5.0 | 0.03 | 0.74 | 0.74 | 79 | 1018.8 |
| 20260830234511 | 67 | 0 | 0.0 | 0.0 | 0.03 | 0.74 | 0.74 | 79 | 1018.9 |
| 20260830234011 | 67 | 0 | 0.0 | 0.0 | 0.03 | 0.73 | 0.73 | 79 | 1019.0 |
| 20260830233511 | 67 | 0 | 0.0 | 0.0 | 0.02 | 0.72 | 0.72 | 79 | 1018.9 |
| 20260830233011 | 67 | 0 | 0.0 | 0.0 | 0.04 | 0.72 | 0.72 | 79 | 1018.9 |
| 20260830232512 | 67 | 158 | 0.0 | 0.0 | 0.04 | 0.72 | 0.72 | 79 | 1018.8 |
| 20260830232011 | 67 | 158 | 1.0 | 4.0 | 0.05 | 0.72 | 0.72 | 79 | 1018.9 |
| 20260830231511 | 67 | 158 | 1.0 | 7.0 | 0.04 | 0.72 | 0.72 | 79 | 1019.1 |
| 20260830231032 | 67 | 158 | 0.0 | 3.0 | 0.05 | 0.72 | 0.72 | 79 | 1019.2 |
| 20260830230511 | 67 | 98 | 0.0 | 0.0 | 0.05 | 0.72 | 0.72 | 79 | 1019.1 |
| 20260830230032 | 67 | 56 | 0.0 | 5.0 | 0.05 | 0.72 | 0.72 | 79 | 1019.1 |
| 20260830225511 | 67 | 116 | 0.0 | 1.0 | 0.04 | 0.71 | 0.71 | 79 | 1019.1 |
| 20260830225011 | 67 | 150 | 1.0 | 7.0 | 0.04 | 0.71 | 0.71 | 79 | 1018.9 |
| 20260830224511 | 67 | 151 | 1.0 | 7.0 | 0.04 | 0.71 | 0.71 | 79 | 1018.8 |
| 20260830224037 | 67 | 156 | 0.0 | 4.0 | 0.03 | 0.70 | 0.70 | 79 | 1018.9 |
| 20260830223512 | 67 | 159 | 0.0 | 1.0 | 0.04 | 0.70 | 0.70 | 79 | 1018.9 |
| 20260830223012 | 67 | 159 | 2.0 | 3.0 | 0.04 | 0.69 | 0.69 | 79 | 1018.8 |
| 20260830222511 | 67 | 158 | 2.0 | 7.0 | 0.06 | 0.69 | 0.69 | 78 | 1018.5 |
| 20260830222011 | 67 | 156 | 2.0 | 8.0 | 0.06 | 0.68 | 0.68 | 78 | 1018.4 |
| 20260830221514 | 67 | 156 | 3.0 | 7.0 | 0.06 | 0.68 | 0.68 | 78 | 1018.1 |
| 20260830221032 | 67 | 154 | 3.0 | 7.0 | 0.06 | 0.67 | 0.67 | 78 | 1018.0 |
| 20260830220511 | 67 | 147 | 3.0 | 8.0 | 0.06 | 0.67 | 0.67 | 78 | 1017.9 |
| 20260830220011 | 67 | 147 | 3.0 | 11.0 | 0.07 | 0.67 | 0.67 | 78 | 1017.9 |
| 20260830215512 | 67 | 155 | 4.0 | 9.0 | 0.07 | 0.67 | 0.67 | 78 | 1017.7 |
| 20260830215011 | 67 | 158 | 4.0 | 8.0 | 0.07 | 0.67 | 0.67 | 78 | 1017.7 |
| 20260830214513 | 67 | 161 | 4.0 | 8.0 | 0.07 | 0.67 | 0.67 | 78 | 1017.8 |
| 20260830214011 | 67 | 162 | 3.0 | 7.0 | 0.07 | 0.67 | 0.67 | 78 | 1017.8 |
| 20260830213513 | 67 | 164 | 3.0 | 7.0 | 0.06 | 0.66 | 0.66 | 78 | 1017.8 |
| 20260830213012 | 67 | 161 | 2.0 | 7.0 | 0.05 | 0.65 | 0.65 | 78 | 1017.9 |
| 20260830212511 | 67 | 138 | 1.0 | 7.0 | 0.04 | 0.63 | 0.63 | 78 | 1018.1 |
| 20260830212011 | 68 | 161 | 2.0 | 5.0 | 0.03 | 0.62 | 0.62 | 78 | 1018.2 |
| 20260830211513 | 68 | 165 | 2.0 | 7.0 | 0.06 | 0.62 | 0.62 | 77 | 1018.1 |
| 20260830210511 | 68 | 167 | 0.0 | 4.0 | 0.07 | 0.61 | 0.61 | 78 | 1018.0 |
| 20260830210014 | 68 | 168 | 0.0 | 1.0 | 0.06 | 0.60 | 0.60 | 78 | 1018.2 |
| 20260830205511 | 68 | 163 | 1.0 | 3.0 | 0.06 | 0.60 | 0.60 | 78 | 1018.4 |
| 20260830205011 | 68 | 199 | 2.0 | 7.0 | 0.07 | 0.60 | 0.60 | 78 | 1018.3 |
| 20260830204011 | 68 | 340 | 0.0 | 3.0 | 0.12 | 0.60 | 0.60 | 77 | 1018.3 |
| 20260830203511 | 68 | 350 | 1.0 | 4.0 | 0.14 | 0.60 | 0.60 | 77 | 1018.3 |
| 20260830203011 | 68 | 349 | 2.0 | 5.0 | 0.17 | 0.60 | 0.60 | 77 | 1018.2 |
| 20260830202511 | 68 | 347 | 2.0 | 4.0 | 0.17 | 0.59 | 0.59 | 77 | 1018.0 |
| 20260830202032 | 67 | 346 | 2.0 | 5.0 | 0.19 | 0.59 | 0.59 | 77 | 1018.0 |
| 20260830201511 | 67 | 333 | 1.0 | 5.0 | 0.18 | 0.57 | 0.57 | 77 | 1018.1 |
| 20260830201032 | 67 | 312 | 1.0 | 4.0 | 0.18 | 0.55 | 0.55 | 77 | 1017.9 |
| 20260830200512 | 68 | 342 | 2.0 | 4.0 | 0.17 | 0.54 | 0.54 | 77 | 1018.3 |
| 20260830200011 | 68 | 345 | 2.0 | 5.0 | 0.17 | 0.54 | 0.54 | 77 | 1018.3 |
| 20260830195511 | 68 | 348 | 2.0 | 7.0 | 0.17 | 0.54 | 0.54 | 77 | 1018.4 |
| 20260830195010 | 67 | 64 | 2.0 | 7.0 | 0.17 | 0.53 | 0.53 | 77 | 1018.3 |
| 20260830194512 | 67 | 135 | 1.0 | 8.0 | 0.15 | 0.50 | 0.50 | 77 | 1018.5 |
| 20260830194011 | 67 | 162 | 0.0 | 5.0 | 0.13 | 0.48 | 0.48 | 77 | 1018.5 |
| 20260830193532 | 67 | 34 | 0.0 | 1.0 | 0.10 | 0.46 | 0.46 | 77 | 1018.6 |
| 20260830193011 | 67 | 101 | 2.0 | 8.0 | 0.08 | 0.43 | 0.43 | 77 | 1018.7 |
| 20260830192532 | 67 | 114 | 3.0 | 5.0 | 0.06 | 0.42 | 0.42 | 77 | 1018.5 |
| 20260830192011 | 67 | 126 | 1.0 | 5.0 | 0.05 | 0.40 | 0.40 | 77 | 1018.6 |
| 20260830191531 | 67 | 124 | 1.0 | 5.0 | 0.03 | 0.39 | 0.39 | 77 | 1018.8 |
| 20260830191011 | 67 | 123 | 2.0 | 5.0 | 0.02 | 0.37 | 0.37 | 77 | 1018.8 |
| 20260830190511 | 67 | 117 | 2.0 | 5.0 | 0.02 | 0.37 | 0.37 | 75 | 1018.9 |
| 20260830190010 | 67 | 105 | 2.0 | 5.0 | 0.01 | 0.36 | 0.36 | 77 | 1018.7 |
| 20260830185511 | 67 | 110 | 2.0 | 5.0 | 0.01 | 0.36 | 0.36 | 77 | 1018.6 |
| 20260830185031 | 67 | 116 | 2.0 | 5.0 | 0.01 | 0.36 | 0.36 | 77 | 1018.5 |
| 20260830184511 | 67 | 113 | 2.0 | 4.0 | 0.00 | 0.35 | 0.35 | 75 | 1018.6 |
| 20260830184010 | 67 | 114 | 2.0 | 4.0 | 0.00 | 0.35 | 0.35 | 77 | 1018.7 |
| 20260830183511 | 67 | 115 | 1.0 | 5.0 | 0.00 | 0.35 | 0.35 | 75 | 1018.6 |
| 20260830183011 | 67 | 115 | 0.0 | 0.0 | 0.00 | 0.35 | 0.35 | 75 | 1018.9 |
| 20260830182532 | 67 | 114 | 1.0 | 4.0 | 0.00 | 0.35 | 0.35 | 75 | 1019.0 |
| 20260830182032 | 67 | 114 | 1.0 | 4.0 | 0.01 | 0.35 | 0.35 | 75 | 1019.0 |
| 20260830181511 | 67 | 112 | 2.0 | 3.0 | 0.01 | 0.35 | 0.35 | 75 | 1019.1 |
| 20260830181011 | 67 | 111 | 3.0 | 5.0 | 0.02 | 0.35 | 0.35 | 75 | 1018.9 |
| 20260830180532 | 67 | 108 | 2.0 | 5.0 | 0.02 | 0.35 | 0.35 | 75 | 1018.9 |
| 20260830180011 | 67 | 99 | 2.0 | 4.0 | 0.04 | 0.35 | 0.35 | 75 | 1018.9 |
| 20260830175511 | 67 | 97 | 2.0 | 4.0 | 0.05 | 0.35 | 0.35 | 75 | 1018.9 |
| 20260830175011 | 67 | 101 | 2.0 | 4.0 | 0.06 | 0.35 | 0.35 | 75 | 1019.1 |
| 20260830174532 | 66 | 104 | 1.0 | 4.0 | 0.06 | 0.35 | 0.35 | 77 | 1019.1 |
| 20260830174011 | 66 | 104 | 1.0 | 3.0 | 0.07 | 0.35 | 0.35 | 75 | 1019.2 |
| 20260830173511 | 66 | 104 | 1.0 | 4.0 | 0.09 | 0.35 | 0.35 | 75 | 1019.2 |
| 20260830173011 | 66 | 104 | 1.0 | 3.0 | 0.11 | 0.35 | 0.35 | 77 | 1019.3 |
| 20260830172511 | 66 | 104 | 1.0 | 4.0 | 0.12 | 0.35 | 0.35 | 77 | 1019.3 |
| 20260830172011 | 66 | 103 | 1.0 | 4.0 | 0.13 | 0.35 | 0.35 | 77 | 1019.3 |
| 20260830171510 | 66 | 102 | 1.0 | 4.0 | 0.15 | 0.35 | 0.35 | 77 | 1019.3 |
| 20260830171010 | 66 | 101 | 1.0 | 5.0 | 0.16 | 0.34 | 0.34 | 77 | 1019.3 |
| 20260830170511 | 66 | 103 | 0.0 | 4.0 | 0.17 | 0.33 | 0.33 | 77 | 1019.3 |
| 20260830170011 | 66 | 0 | 0.0 | 0.0 | 0.16 | 0.31 | 0.31 | 77 | 1019.5 |
| 20260830165511 | 66 | 0 | 0.0 | 0.0 | 0.15 | 0.31 | 0.31 | 77 | 1019.6 |
| 20260830165011 | 66 | 0 | 0.0 | 0.0 | 0.14 | 0.30 | 0.30 | 77 | 1019.6 |
| 20260830164510 | 67 | 0 | 0.0 | 0.0 | 0.13 | 0.29 | 0.29 | 77 | 1019.8 |
| 20260830164031 | 67 | 0 | 0.0 | 0.0 | 0.13 | 0.28 | 0.28 | 77 | 1019.8 |
| 20260830163511 | 67 | 0 | 0.0 | 0.0 | 0.11 | 0.27 | 0.27 | 77 | 1019.9 |
| 20260830163011 | 67 | 0 | 0.0 | 0.0 | 0.09 | 0.24 | 0.24 | 77 | 1020.1 |
| 20260830162511 | 67 | 0 | 0.0 | 0.0 | 0.08 | 0.24 | 0.24 | 77 | 1020.1 |
| 20260830162011 | 67 | 0 | 0.0 | 0.0 | 0.06 | 0.21 | 0.21 | 77 | 1020.1 |
| 20260830161510 | 68 | 102 | 0.0 | 0.0 | 0.04 | 0.20 | 0.20 | 77 | 1020.1 |
| 20260830161010 | 68 | 102 | 0.0 | 1.0 | 0.03 | 0.18 | 0.18 | 77 | 1020.1 |
| 20260830160510 | 68 | 98 | 0.0 | 1.0 | 0.02 | 0.17 | 0.17 | 78 | 1020.1 |
| 20260830160032 | 68 | 99 | 1.0 | 3.0 | 0.02 | 0.16 | 0.16 | 77 | 1020.1 |
| 20260830155532 | 67 | 101 | 1.0 | 3.0 | 0.02 | 0.16 | 0.16 | 77 | 1019.9 |
| 20260830155010 | 67 | 101 | 1.0 | 3.0 | 0.02 | 0.16 | 0.16 | 77 | 1019.9 |
| 20260830154531 | 67 | 99 | 2.0 | 4.0 | 0.02 | 0.16 | 0.16 | 77 | 1019.9 |
| 20260830154010 | 67 | 92 | 2.0 | 4.0 | 0.02 | 0.16 | 0.16 | 77 | 1019.7 |
| 20260830153531 | 67 | 54 | 2.0 | 4.0 | 0.02 | 0.16 | 0.16 | 78 | 1019.8 |
| 20260830153011 | 67 | 35 | 3.0 | 5.0 | 0.02 | 0.16 | 0.16 | 78 | 1019.7 |
| 20260830152531 | 67 | 64 | 2.0 | 5.0 | 0.02 | 0.16 | 0.16 | 78 | 1019.6 |
| 20260830152010 | 67 | 94 | 1.0 | 4.0 | 0.02 | 0.16 | 0.16 | 78 | 1020.0 |
| 20260830151531 | 66 | 93 | 0.0 | 4.0 | 0.02 | 0.16 | 0.16 | 78 | 1019.9 |
| 20260830151010 | 66 | 93 | 1.0 | 4.0 | 0.02 | 0.15 | 0.15 | 77 | 1019.9 |
| 20260830150510 | 66 | 92 | 0.0 | 4.0 | 0.02 | 0.14 | 0.14 | 77 | 1019.8 |
| 20260830150010 | 66 | 92 | 0.0 | 3.0 | 0.02 | 0.14 | 0.14 | 77 | 1019.8 |
| 20260830145511 | 66 | 91 | 2.0 | 3.0 | 0.02 | 0.14 | 0.14 | 77 | 1019.9 |
| 20260830145011 | 66 | 91 | 2.0 | 5.0 | 0.02 | 0.14 | 0.14 | 77 | 1019.9 |
| 20260830144510 | 66 | 91 | 1.0 | 3.0 | 0.02 | 0.14 | 0.14 | 77 | 1019.9 |
| 20260830144032 | 66 | 91 | 0.0 | 4.0 | 0.03 | 0.14 | 0.14 | 77 | 1019.9 |
| 20260830143510 | 66 | 90 | 0.0 | 0.0 | 0.03 | 0.14 | 0.14 | 77 | 1019.9 |
| 20260830143011 | 66 | 90 | 1.0 | 1.0 | 0.04 | 0.14 | 0.14 | 77 | 1019.8 |
| 20260830142511 | 66 | 90 | 2.0 | 4.0 | 0.05 | 0.14 | 0.14 | 75 | 1019.7 |
| 20260830142010 | 66 | 90 | 2.0 | 4.0 | 0.06 | 0.13 | 0.13 | 75 | 1019.7 |
| 20260830141511 | 66 | 88 | 3.0 | 8.0 | 0.07 | 0.13 | 0.13 | 75 | 1019.7 |
| 20260830141011 | 66 | 87 | 2.0 | 5.0 | 0.08 | 0.13 | 0.13 | 75 | 1019.6 |
| 20260830140510 | 66 | 86 | 2.0 | 5.0 | 0.08 | 0.13 | 0.13 | 75 | 1019.7 |
| 20260830140010 | 66 | 85 | 3.0 | 8.0 | 0.09 | 0.13 | 0.13 | 75 | 1019.7 |
| 20260830135510 | 66 | 86 | 3.0 | 8.0 | 0.10 | 0.13 | 0.13 | 75 | 1019.7 |
| 20260830135010 | 66 | 99 | 3.0 | 8.0 | 0.10 | 0.13 | 0.13 | 75 | 1019.7 |
| 20260830134532 | 66 | 113 | 1.0 | 8.0 | 0.10 | 0.12 | 0.12 | 75 | 1019.8 |
| 20260830134010 | 66 | 0 | 0.0 | 0.0 | 0.10 | 0.11 | 0.11 | 75 | 1020.0 |
| 20260830133511 | 66 | 0 | 0.0 | 0.0 | 0.10 | 0.11 | 0.11 | 75 | 1020.0 |
| 20260830133010 | 66 | 0 | 0.0 | 0.0 | 0.09 | 0.10 | 0.10 | 74 | 1020.0 |
| 20260830132510 | 66 | 0 | 0.0 | 0.0 | 0.09 | 0.09 | 0.09 | 75 | 1020.1 |
| 20260830132010 | 66 | 0 | 0.0 | 0.0 | 0.07 | 0.08 | 0.08 | 75 | 1020.1 |
| 20260830131510 | 66 | 0 | 0.0 | 0.0 | 0.06 | 0.06 | 0.07 | 75 | 1019.9 |
| 20260830131011 | 66 | 0 | 0.0 | 0.0 | 0.05 | 0.06 | 0.06 | 75 | 1019.9 |
| 20260830130510 | 66 | 0 | 0.0 | 0.0 | 0.04 | 0.05 | 0.05 | 75 | 1019.7 |
| 20260830130010 | 66 | 0 | 0.0 | 0.0 | 0.03 | 0.03 | 0.03 | 75 | 1019.8 |
| 20260830125511 | 66 | 0 | 0.0 | 0.0 | 0.02 | 0.02 | 0.02 | 75 | 1019.7 |
| 20260830125031 | 66 | 0 | 0.0 | 0.0 | 0.02 | 0.02 | 0.02 | 74 | 1019.9 |
| 20260830124511 | 66 | 0 | 0.0 | 0.0 | 0.02 | 0.02 | 0.02 | 75 | 1019.8 |
| 20260830124031 | 66 | 0 | 0.0 | 0.0 | 0.01 | 0.01 | 0.01 | 75 | 1019.9 |
| 20260830123511 | 66 | 0 | 0.0 | 0.0 | 0.01 | 0.01 | 0.01 | 74 | 1019.8 |
| 20260830123010 | 66 | 0 | 0.0 | 0.0 | 0.01 | 0.01 | 0.01 | 74 | 1019.7 |
| 20260830122510 | 66 | 0 | 0.0 | 0.0 | 0.01 | 0.01 | 0.01 | 74 | 1019.6 |
| 20260830122010 | 66 | 0 | 0.0 | 0.0 | 0.01 | 0.01 | 0.01 | 75 | 1019.5 |
| 20260830121532 | 66 | 0 | 0.0 | 0.0 | 0.01 | 0.01 | 0.01 | 74 | 1019.4 |
| 20260830121010 | 66 | 0 | 0.0 | 0.0 | 0.01 | 0.01 | 0.01 | 75 | 1019.3 |
| 20260830120510 | 66 | 0 | 0.0 | 0.0 | 0.01 | 0.01 | 0.01 | 75 | 1019.2 |
| 20260830120010 | 66 | 0 | 0.0 | 0.0 | 0.00 | 0.00 | 0.00 | 74 | 1019.1 |
| 20260830115510 | 66 | 0 | 0.0 | 0.0 | 0.00 | 0.00 | 0.00 | 74 | 1019.1 |
| 20260830115011 | 66 | 0 | 0.0 | 0.0 | 0.00 | 0.00 | 0.00 | 74 | 1019.1 |
| 20260830114511 | 66 | 0 | 0.0 | 0.0 | 0.00 | 0.00 | 0.00 | 74 | 1018.8 |
| 20260830114010 | 66 | 0 | 0.0 | 0.0 | 0.00 | 0.00 | 0.00 | 74 | 1018.8 |